[[{"header":{"parameterUnit":"m.s-1","parameterCategory":1,"la1":30.2991,"la2":30.254,"lo1":-89.0895,"lo2":-89.0444,"dy":0.0017,"dx":0.0017,"nx":28,"ny":28,"refTime":"2025-03-08T09:00:00:Z","depth":0,"parameterNumber":2,"parameterNumberName":"U-component_of_WINDS"},"data":[0,0,0,0,0,0,0,0,0,0,0,0,0,0,0,0,0,0,0,0,0,0,0,0,0,0,0,0,0,0,0,0,0,0,0,0,0,0,0,0,0,0,0,0,0,0,0,0,0,0,0,0,0,0,0,0,0,0,-1.413,-1.4131,0,-1.4178,-1.4178,-1.4179,-1.4263,-1.4265,-1.4266,-1.4268,-1.4311,-1.4311,-1.4311,0,0,0,0,0,0,0,0,0,0,0,0,0,-1.4105,-1.4105,-1.413,-1.4131,-1.4131,-1.4178,-1.4178,-1.4179,-1.4263,-1.4265,-1.4267,-1.4268,-1.4311,-1.4311,-1.4311,0,0,0,0,0,0,0,0,0,0,0,0,0,-1.4131,-1.4105,-1.413,-1.4179,-1.4184,-1.4178,-1.4178,-1.4179,-1.4262,-1.4265,-1.4267,-1.4269,-1.4311,-1.4311,-1.431,-1.4259,0,0,-1.4309,-1.4309,0,0,0,0,0,0,0,0,-1.4129,-1.4131,-1.4171,-1.4175,-1.4181,-1.4217,-1.4186,-1.4206,-1.4262,-1.4232,-1.4268,-1.427,-1.4278,-1.428,-1.4284,-1.4261,-1.4263,-1.4309,-1.4309,-1.4308,-1.4308,0,0,0,0,0,0,0,-1.4127,-1.413,-1.4149,-1.4171,-1.4177,-1.4196,-1.4202,-1.419,-1.4241,-1.4235,-1.4241,-1.4246,-1.4281,-1.4284,-1.4285,-1.4264,-1.4309,-1.4308,-1.4308,-1.4308,-1.4198,-1.4195,0,0,0,0,0,0,-1.4119,-1.4128,-1.4147,-1.415,-1.416,-1.4195,-1.4202,-1.4203,-1.4241,-1.4249,-1.4244,-1.425,-1.4283,-1.4286,-1.4287,-1.4226,-1.4308,-1.4308,-1.4308,-1.42,-1.4197,-1.4194,0,0,0,0,0,0,-1.4118,-1.412,-1.4145,-1.4141,-1.4145,-1.4193,-1.4193,-1.4202,-1.4206,-1.4248,-1.4257,-1.4238,-1.4285,-1.4288,-1.4265,-1.4229,-1.4308,-1.4307,-1.4203,-1.4199,-1.4195,-1.4105,0,0,0,0,0,0,-1.4117,-1.4119,-1.4102,-1.414,-1.4145,-1.4124,-1.4191,-1.4202,-1.4205,-1.4213,-1.4245,-1.4252,-1.4288,-1.4265,-1.4264,-1.4229,-1.4307,-1.4207,-1.4201,-1.4197,-1.4111,-1.4098,-1.4087,0,0,0,0,0,-1.4116,-1.4074,-1.41,-1.4102,-1.4125,-1.4122,-1.4125,-1.4168,-1.4202,-1.4183,-1.421,-1.4251,-1.4234,-1.4262,-1.4262,-1.4226,-1.4209,-1.4203,-1.4197,-1.4117,-1.4101,-1.4088,0,0,0,0,0,0,-1.4029,-1.408,-1.411,-1.4079,-1.4096,-1.4136,-1.4114,-1.415,-1.4156,-1.4163,-1.4215,-1.4221,-1.419,-1.4207,-1.4238,-1.4177,-1.4228,-1.4221,-1.4166,-1.4152,-1.414,-1.4135,-1.4306,0,0,0,0,0,-1.4007,-1.4002,-1.4046,-1.4015,-1.4022,-1.4066,-1.4067,-1.4099,-1.4117,-1.4124,-1.4149,-1.4163,-1.4161,-1.4158,-1.4159,-1.4116,-1.4121,-1.4091,-1.4079,-1.4069,-1.4061,-1.4035,-1.4021,-1.4175,-1.4175,-1.4175,0,0,-1.3959,-1.3987,-1.398,-1.3998,-1.4015,-1.4005,-1.4071,-1.406,-1.4053,-1.4122,-1.4101,-1.412,-1.4139,-1.4105,-1.4091,-1.4117,-1.402,-1.4061,-1.4053,-1.4051,-1.4028,-1.4013,-1.4,-1.4171,-1.4171,-1.4172,0,0,-1.3868,-1.3891,-1.3865,-1.388,-1.3905,-1.3934,-1.3928,-1.3963,-1.3978,-1.3959,-1.4009,-1.4001,-1.3997,-1.4007,-1.4012,-1.3923,-1.3959,-1.3922,-1.3858,-1.3832,-1.382,-1.3809,-1.3773,-1.376,-1.3916,-1.3916,-1.3915,0,-1.3806,-1.3797,-1.3847,-1.3832,-1.3836,-1.39,-1.3872,-1.3884,-1.3906,-1.3907,-1.3937,-1.3931,-1.3949,-1.3916,-1.3894,-1.3898,-1.3889,-1.3917,-1.3818,-1.3808,-1.3799,-1.3765,-1.3751,-1.3911,-1.3911,-1.3912,-1.3912,0,-1.3716,-1.3709,-1.3685,-1.3706,-1.3708,-1.3687,-1.3731,-1.3728,-1.3759,-1.3785,-1.3762,-1.3786,-1.379,-1.3786,-1.3817,-1.3756,-1.3771,-1.3809,-1.386,-1.3778,-1.3747,-1.3734,-1.3903,-1.3905,-1.3907,-1.3908,0,0,-1.3569,-1.3618,-1.3608,-1.3617,-1.3648,-1.3642,-1.3623,-1.3629,-1.3622,-1.3636,-1.3617,-1.3612,-1.3647,-1.3652,-1.3685,-1.3663,-1.3585,-1.3703,-1.3704,-1.3676,-1.3514,-1.3482,-1.3466,-1.3611,-1.3609,-1.3607,-1.3511,0,-1.3481,-1.3452,-1.3496,-1.3455,-1.3446,-1.3506,-1.3489,-1.3504,-1.3528,-1.3522,-1.3548,-1.3541,-1.359,-1.3593,-1.3574,-1.3598,-1.3552,-1.3607,-1.3591,-1.3589,-1.3579,-1.3451,-1.3417,-1.3325,-1.3499,-1.3498,-1.3496,0,-1.3374,-1.3382,-1.3341,-1.3372,-1.337,-1.3354,-1.3361,-1.3356,-1.3374,-1.3392,-1.3398,-1.3437,-1.3417,-1.347,-1.344,-1.3476,-1.3473,-1.3483,-1.3481,-1.3477,-1.3534,-1.3438,-1.3297,-1.3281,-1.3478,-1.348,-1.3481,0,-1.3265,-1.3266,-1.3241,-1.3247,-1.3284,-1.327,-1.3285,-1.3306,-1.3305,-1.3311,-1.3311,-1.3314,-1.3315,-1.3315,-1.3353,-1.3389,-1.3317,-1.3374,-1.3327,-1.3326,-1.3306,-1.3306,-1.3157,-1.3312,-1.3312,-1.3312,-1.3312,0,-1.3159,-1.313,-1.3192,-1.3175,-1.3143,-1.3194,-1.316,-1.3181,-1.3198,-1.3185,-1.3238,-1.3223,-1.3276,-1.3267,-1.3296,-1.3264,-1.3266,-1.3277,-1.3284,-1.3269,-1.3267,-1.3264,-1.3269,-1.3309,-1.3309,-1.331,-1.3311,0,-1.303,-1.3071,-1.3046,-1.3084,-1.3092,-1.3066,-1.3097,-1.3082,-1.3109,-1.3091,-1.309,-1.3131,-1.3122,-1.3161,-1.316,-1.3179,-1.313,-1.3151,-1.3124,-1.3128,-1.3077,-1.308,-1.2917,-1.2896,-1.3069,-1.3068,-1.3066,0,-1.2958,-1.2936,-1.2972,-1.2967,-1.2979,-1.2971,-1.2971,-1.302,-1.3017,-1.3034,-1.3016,-1.3012,-1.3011,-1.2994,-1.3022,-1.302,-1.3037,-1.2981,-1.3037,-1.3021,-1.303,-1.3029,-1.3025,-1.2967,-1.2965,-1.2963,-1.2962,0,-1.2823,-1.2843,-1.2842,-1.2847,-1.2845,-1.2851,-1.2861,-1.2853,-1.2906,-1.2899,-1.2891,-1.2891,-1.2888,-1.2882,-1.2885,-1.2898,-1.2936,-1.2945,-1.2933,-1.2915,-1.2898,-1.2901,-1.3086,-1.2947,-1.2949,-1.295,-1.295,-1.2951,-1.2716,-1.2699,-1.272,-1.2716,-1.2728,-1.2735,-1.2721,-1.2747,-1.2742,-1.2744,-1.2774,-1.2759,-1.2775,-1.2784,-1.2792,-1.278,-1.2806,-1.279,-1.2785,-1.2779,-1.2768,-1.2904,-1.2781,-1.2782,-1.2782,-1.2783,-1.2783,0,-1.258,-1.2596,-1.2592,-1.2603,-1.2599,-1.264,-1.2651,-1.2644,-1.2631,-1.2643,-1.2641,-1.263,-1.2624,-1.2652,-1.2649,-1.2633,-1.265,-1.263,-1.2629,-1.263,-1.2747,-1.2755,-1.2615,-1.2616,-1.2616,-1.2616,-1.2616,-1.2616,-1.2508,-1.2479,-1.2502,-1.2478,-1.2495,-1.2482,-1.2484,-1.249,-1.25,-1.2485,-1.2481,-1.25,-1.2517,-1.2516,-1.251,-1.2519,-1.2513,-1.2485,-1.2498,-1.2606,-1.2622,-1.2638,-1.2645,-1.2485,-1.2484,-1.2382,-1.2381,-1.238]},{"header":{"parameterUnit":"m.s-1","parameterCategory":1,"la1":30.2991,"la2":30.254,"lo1":-89.0895,"lo2":-89.0444,"dy":0.0017,"dx":0.0017,"nx":28,"ny":28,"refTime":"2025-03-08T09:00:00:Z","depth":0,"parameterNumber":3,"parameterNumberName":"V-component_of_WINDS"},"data":[0,0,0,0,0,0,0,0,0,0,0,0,0,0,0,0,0,0,0,0,0,0,0,0,0,0,0,0,0,0,0,0,0,0,0,0,0,0,0,0,0,0,0,0,0,0,0,0,0,0,0,0,0,0,0,0,0,0,4.2653,4.2655,0,4.2874,4.2877,4.2879,4.2889,4.2886,4.2883,4.2881,4.3108,4.3116,4.3125,0,0,0,0,0,0,0,0,0,0,0,0,0,4.2242,4.2249,4.2653,4.2656,4.2658,4.2874,4.2877,4.288,4.2889,4.2886,4.2883,4.288,4.3105,4.3115,4.3125,0,0,0,0,0,0,0,0,0,0,0,0,0,4.2437,4.2252,4.2652,4.2689,4.2694,4.2873,4.2877,4.2881,4.289,4.2886,4.2882,4.2878,4.3102,4.3114,4.3127,4.3284,0,0,4.3166,4.3171,0,0,0,0,0,0,0,0,4.2426,4.2452,4.2681,4.2687,4.2693,4.285,4.2815,4.3016,4.2891,4.2816,4.2881,4.2876,4.3025,4.3044,4.3094,4.3295,4.3304,4.3167,4.3175,4.318,4.3184,0,0,0,0,0,0,0,4.2412,4.2443,4.274,4.2684,4.2692,4.2695,4.2719,4.2853,4.294,4.2822,4.2823,4.2849,4.3028,4.3082,4.31,4.3308,4.3166,4.3178,4.3186,4.3191,4.3653,4.3658,0,0,0,0,0,0,4.2392,4.2431,4.2733,4.2747,4.2547,4.2706,4.2732,4.2803,4.2938,4.2955,4.2852,4.2849,4.3062,4.3085,4.3108,4.3304,4.318,4.3192,4.3199,4.3649,4.3654,4.3659,0,0,0,0,0,0,4.2383,4.2418,4.2724,4.259,4.2629,4.2717,4.2797,4.281,4.2864,4.2961,4.2977,4.2891,4.306,4.309,4.3241,4.3312,4.3198,4.3209,4.3643,4.365,4.3657,4.3696,0,0,0,0,0,0,4.2371,4.2415,4.2475,4.2591,4.2636,4.2854,4.2801,4.2817,4.2886,4.2883,4.3002,4.3018,4.3059,4.3222,4.3254,4.3328,4.3219,4.3637,4.3646,4.3655,4.3689,4.3704,4.3716,0,0,0,0,0,4.2356,4.2476,4.2478,4.2514,4.2713,4.2857,4.2883,4.2928,4.2891,4.2953,4.3016,4.3014,4.3299,4.3237,4.3273,4.3352,4.3633,4.3644,4.3654,4.3683,4.3701,4.3716,0,0,0,0,0,0,4.2365,4.2492,4.2495,4.2656,4.2746,4.2859,4.2938,4.2945,4.3047,4.304,4.3091,4.3118,4.327,4.3325,4.3255,4.3514,4.3462,4.348,4.3472,4.349,4.3503,4.3488,4.323,0,0,0,0,0,4.2386,4.2493,4.2598,4.273,4.2775,4.2849,4.2913,4.294,4.3035,4.3073,4.3147,4.324,4.3351,4.3423,4.353,4.3697,4.3725,4.3769,4.3782,4.3793,4.3809,4.3906,4.3928,4.3694,4.3694,4.3693,0,0,4.243,4.2513,4.2577,4.2734,4.2807,4.2918,4.2881,4.2998,4.3082,4.3091,4.324,4.3298,4.3405,4.3566,4.3641,4.3617,4.388,4.3806,4.3814,4.3825,4.3919,4.3941,4.396,4.3701,4.3699,4.3698,0,0,4.2568,4.264,4.276,4.2834,4.2945,4.2994,4.3023,4.3136,4.3175,4.3325,4.3336,4.3436,4.3624,4.3702,4.3765,4.3936,4.394,4.3969,4.4042,4.4135,4.4154,4.417,4.4235,4.4257,4.3984,4.3984,4.3985,0,4.2609,4.2776,4.282,4.294,4.3011,4.3025,4.3149,4.3218,4.3359,4.3408,4.3379,4.3619,4.3692,4.3874,4.3916,4.3965,4.4002,4.3957,4.4147,4.4164,4.4181,4.4243,4.4267,4.3988,4.3987,4.3987,4.3987,0,4.2823,4.2939,4.3022,4.316,4.3239,4.3359,4.3424,4.3499,4.352,4.3572,4.3727,4.3815,4.3942,4.3986,4.4006,4.4172,4.4155,4.4136,4.4086,4.4206,4.4265,4.4289,4.3992,4.3991,4.399,4.3989,0,0,4.2973,4.3135,4.3165,4.3229,4.3354,4.3445,4.3567,4.3692,4.3758,4.3854,4.3961,4.4121,4.4106,4.4179,4.4208,4.429,4.4425,4.4262,4.4265,4.4292,4.4617,4.4633,4.466,4.4427,4.4431,4.4435,4.461,0,4.3127,4.3345,4.3391,4.358,4.369,4.3707,4.3814,4.3903,4.3956,4.4057,4.4115,4.423,4.4199,4.4244,4.4326,4.4391,4.4491,4.4378,4.4529,4.4534,4.4505,4.469,4.4707,4.4867,4.4633,4.4637,4.464,0,4.3336,4.344,4.3641,4.3755,4.3803,4.3899,4.4019,4.4115,4.4217,4.425,4.4333,4.4354,4.4485,4.4426,4.4608,4.4531,4.4595,4.4637,4.4644,4.4662,4.4596,4.4717,4.4919,4.4944,4.4676,4.4673,4.4671,0,4.343,4.362,4.3766,4.382,4.3955,4.4023,4.4083,4.4181,4.4255,4.436,4.4409,4.4527,4.4593,4.4684,4.4738,4.469,4.4918,4.4863,4.4951,4.495,4.5001,4.4997,4.5219,4.5036,4.5036,4.5035,4.5035,0,4.36,4.3723,4.3811,4.3901,4.4041,4.4092,4.4229,4.4288,4.4376,4.448,4.45,4.4597,4.466,4.4767,4.4809,4.4956,4.4984,4.5016,4.5027,4.5017,4.5013,4.5062,4.5053,4.5042,4.504,4.5039,4.5038,0,4.3729,4.3792,4.3953,4.407,4.4102,4.42,4.43,4.439,4.4442,4.4574,4.4607,4.4691,4.4818,4.488,4.5037,4.5066,4.5233,4.5234,4.5199,4.5204,4.529,4.5283,4.5554,4.5594,4.538,4.5382,4.5384,0,4.3835,4.3931,4.4058,4.4129,4.4191,4.4304,4.438,4.4435,4.4513,4.4639,4.4714,4.4842,4.4947,4.5149,4.5225,4.5346,4.5353,4.544,4.5371,4.536,4.5359,4.5355,4.5366,4.5453,4.5455,4.5456,4.5458,0,4.4017,4.4045,4.4153,4.4274,4.4364,4.4462,4.4558,4.4615,4.4685,4.4772,4.4903,4.4985,4.5146,4.5274,4.5401,4.5464,4.5475,4.5478,4.5506,4.5499,4.5476,4.5494,4.5236,4.5473,4.5471,4.547,4.5469,4.5469,4.4141,4.4229,4.4333,4.4455,4.4533,4.4623,4.4714,4.4779,4.4889,4.5025,4.5051,4.519,4.5294,4.5465,4.5533,4.5644,4.5625,4.5663,4.5674,4.5684,4.5691,4.5455,4.5666,4.5666,4.5666,4.5665,4.5665,0,4.4328,4.4397,4.4508,4.4643,4.4739,4.474,4.4847,4.4928,4.505,4.5146,4.525,4.5402,4.5526,4.5613,4.574,4.5813,4.5821,4.5845,4.5842,4.5857,4.5698,4.5663,4.5836,4.5836,4.5836,4.5836,4.5836,4.5836,4.4437,4.4587,4.4627,4.4817,4.4885,4.5022,4.5084,4.5168,4.5245,4.5414,4.5518,4.5573,4.5667,4.5801,4.5917,4.5939,4.5987,4.6012,4.6034,4.5885,4.5867,4.585,4.5818,4.6021,4.6021,4.6185,4.6186,4.6187]}]]